Location: Vinland
(47.7731°N, 122.6974°W)
Time: 16:13:42
(UTC+00:00)

S-56A Canister/Altair - All Passes

Search period start: 31 March 2023 00:00
Search period end: 10 April 2023 00:00
Orbit: 639 x 2493 km, 38.9° (Epoch: 30 March)

Date Brightness Start Highest point End Pass type
(mag) Time Alt. Az. Time Alt. Az. Time Alt. Az.
31 Mar - 01:06:23 10° SSW 01:14:56 37° SSE 01:26:34 10° E daylight
31 Mar - 03:08:37 10° WSW 03:19:21 57° S 03:33:31 10° E visible
31 Mar - 05:12:37 10° W 05:24:53 54° SSW 05:39:17 10° ESE visible
31 Mar - 07:18:02 10° W 07:30:00 34° SW 07:42:23 10° SSE visible
31 Mar - 09:28:58 10° WSW 09:33:34 12° SW 09:38:06 10° SW visible
01 Apr - 00:34:04 10° SSW 00:41:53 33° SE 00:52:34 10° E daylight
01 Apr - 02:35:52 10° WSW 02:45:58 55° SSE 02:59:42 10° E daylight
01 Apr - 04:39:33 10° W 04:51:20 55° S 05:05:45 10° ESE visible
01 Apr - 06:44:36 10° W 06:56:34 37° SSW 07:09:24 10° SSE visible
01 Apr - 08:53:43 10° WSW 09:00:25 15° SW 09:07:04 10° SSW visible
02 Apr - 00:01:51 10° SSW 00:08:57 29° SE 00:18:32 10° E daylight
02 Apr - 02:03:13 10° WSW 02:12:39 52° SSE 02:25:51 10° E daylight
02 Apr - 04:06:35 10° W 04:17:49 56° S 04:32:07 10° ESE visible
02 Apr - 06:11:17 10° W 06:23:05 39° SSW 06:36:17 10° SSE visible
02 Apr - 08:19:13 10° W 08:27:12 17° SW 08:35:19 10° SSW visible
02 Apr - 23:29:45 10° S 23:36:05 25° SE 23:44:28 10° E daylight
03 Apr - 01:30:37 10° SW 01:39:25 49° SSE 01:51:58 10° E daylight
03 Apr - 03:33:42 10° W 03:44:20 56° S 03:58:26 10° ESE visible
03 Apr - 05:38:04 10° W 05:49:36 41° SSW 06:03:02 10° SE visible
03 Apr - 07:45:08 10° W 07:53:58 20° SW 08:03:08 10° S visible
03 Apr - 22:57:50 10° S 23:03:18 21° SE 23:10:19 10° E daylight
04 Apr - 00:58:06 10° SW 01:06:17 46° SSE 01:18:04 10° E daylight
04 Apr - 03:00:53 10° WSW 03:10:56 56° S 03:24:40 10° ESE visible
04 Apr - 05:04:58 10° W 05:16:08 43° SSW 05:29:41 10° SE visible
04 Apr - 07:11:18 10° W 07:20:40 22° SW 07:30:40 10° S visible
04 Apr - 22:26:09 10° S 22:30:36 17° SE 22:36:03 10° E daylight
05 Apr - 00:25:39 10° SW 00:33:14 42° SSE 00:44:10 10° E daylight
05 Apr - 02:28:10 10° WSW 02:37:35 55° S 02:50:52 10° ESE daylight
05 Apr - 04:31:57 10° W 04:42:41 45° SSW 04:56:14 10° SE visible
05 Apr - 06:37:42 10° W 06:47:21 24° SW 06:58:00 10° S visible
05 Apr - 21:54:53 10° SSE 21:57:57 13° SE 22:01:26 10° ESE daylight
05 Apr - 23:53:17 10° SW 00:00:16 38° SSE 00:10:17 10° E daylight
06 Apr - 01:55:29 10° WSW 02:04:19 54° S 02:17:02 10° ESE daylight
06 Apr - 03:59:01 10° W 04:09:17 46° SSW 04:22:42 10° SE visible
06 Apr - 06:04:16 10° W 06:14:01 26° SW 06:25:08 10° SSE visible
06 Apr - 23:21:00 10° SSW 23:27:23 34° SSE 23:36:25 10° E daylight
07 Apr - 01:22:53 10° WSW 01:31:08 52° S 01:43:12 10° ESE daylight
07 Apr - 03:26:10 10° W 03:35:54 47° SSW 03:49:04 10° SE visible
07 Apr - 05:30:59 10° W 05:40:40 28° SW 05:52:07 10° SSE visible
07 Apr - 22:48:48 10° SSW 22:54:34 29° SSE 23:02:34 10° E daylight
08 Apr - 00:50:20 10° WSW 00:58:00 50° S 01:09:22 10° ESE daylight
08 Apr - 02:53:23 10° W 03:02:35 48° SSW 03:15:24 10° SE daylight
08 Apr - 04:57:49 10° W 05:07:20 30° SSW 05:18:58 10° SSE visible
08 Apr - 07:09:13 10° WSW 07:11:18 10° SW 07:13:26 10° SW visible
08 Apr - 22:16:42 10° SSW 22:21:50 25° SE 22:28:43 10° E daylight
09 Apr - 00:17:51 10° WSW 00:24:58 47° SSE 00:35:33 10° E daylight
09 Apr - 02:20:41 10° W 02:29:20 49° S 02:41:41 10° ESE daylight
09 Apr - 04:24:47 10° W 04:34:02 32° SSW 04:45:42 10° SSE visible
09 Apr - 06:33:39 10° WSW 06:38:07 12° SW 06:42:52 10° SSW visible
09 Apr - 21:44:42 10° S 21:49:09 21° SE 21:54:52 10° E daylight
